FW3806 Weather Reports


Display with metric or nautical units.
time (UTC)temp
F
wind
direction
speed
MPH
gust
MPH
rain 1hr
in
rain 24hr
in
rain mn
in
humidity
%
barometer
mb
20260506134538 60 21 1.0 8.0 0.00 0.00 0.00 34 1013.6
20260506133036 59 327 0.0 5.0 0.00 0.00 0.00 35 1013.3
20260506131537 59 340 1.0 5.0 0.00 0.00 0.00 35 1013.2
20260506130033 58 290 1.0 6.0 0.00 0.00 0.00 35 1012.8
20260506124531 59 335 1.0 5.0 0.00 0.00 0.00 34 1012.6
20260506123029 59 332 3.0 8.0 0.00 0.00 0.00 34 1012.5
20260506121528 60 300 3.0 9.0 0.00 0.00 0.00 33 1012.4
20260506120027 61 340 4.0 10.0 0.00 0.00 0.00 32 1012.4
20260506114526 60 330 5.0 10.0 0.00 0.00 0.00 34 1012.3
20260506113024 58 31 0.0 7.0 0.00 0.00 0.00 34 1012.2
20260506111528 56 323 2.0 6.0 0.00 0.00 0.00 37 1012.1
20260506110021 56 287 0.0 0.0 0.00 0.00 0.00 38 1012.0
20260506104520 56 311 0.0 0.0 0.00 0.00 0.00 38 1011.9
20260506103017 56 311 0.0 0.0 0.00 0.00 0.00 38 1011.7
20260506101514 57 93 0.0 3.0 0.00 0.00 0.00 37 1011.5
20260506100011 57 120 0.0 0.0 0.00 0.00 0.00 37 1011.1
20260506094508 57 283 0.0 0.0 0.00 0.00 0.00 37 1010.9
20260506093006 57 283 0.0 1.0 0.00 0.00 0.00 37 1010.6
20260506091505 58 283 0.0 0.0 0.00 0.00 0.00 36 1010.5
20260506090111 59 283 0.0 0.0 0.00 0.00 0.00 35 1010.6
20260506084633 59 283 0.0 0.0 0.00 0.00 0.00 35 1010.5
20260506083058 60 283 0.0 0.0 0.00 0.00 0.00 33 1010.7
20260506081600 63 281 0.0 0.0 0.00 0.00 0.00 30 1010.7
20260506073049 65 271 0.0 4.0 0.00 0.00 0.00 29 1010.5
20260506071548 65 294 0.0 4.0 0.00 0.00 0.00 29 1010.5
20260506061543 65 292 0.0 0.0 0.00 0.00 0.00 29 1010.2
20260506044532 66 335 0.0 0.0 0.00 0.00 0.00 31 1009.3
20260506043031 66 335 0.0 2.0 0.00 0.00 0.00 30 1009.2
20260506041546 67 139 0.0 0.0 0.00 0.00 0.00 30 1009.1
20260506040032 68 139 0.0 0.0 0.00 0.00 0.00 29 1008.9
20260506034543 69 139 0.0 0.0 0.00 0.00 0.00 28 1008.5
20260506033028 69 127 0.0 0.0 0.00 0.00 0.00 27 1008.2
20260506031528 70 167 0.0 3.0 0.00 0.00 0.00 27 1007.9
20260506030027 71 154 2.0 7.0 0.00 0.00 0.00 25 1007.6
20260506024529 71 128 2.0 5.0 0.00 0.00 0.00 23 1007.4
20260506023026 71 146 3.0 8.0 0.00 0.00 0.00 23 1007.2
20260506021525 72 199 1.0 5.0 0.00 0.00 0.00 21 1007.0
20260506020025 72 160 3.0 6.0 0.00 0.00 0.00 20 1006.9
20260506014524 73 100 0.0 5.0 0.00 0.00 0.00 19 1006.8
20260506013036 73 117 0.0 5.0 0.00 0.00 0.00 19 1006.7
20260506011526 73 97 0.0 5.0 0.00 0.00 0.00 19 1006.7
20260506010025 74 146 0.0 7.0 0.00 0.00 0.00 20 1006.7
20260506004522 73 99 2.0 6.0 0.00 0.00 0.00 20 1006.6
20260506003021 74 134 4.0 8.0 0.00 0.00 0.00 20 1006.6
20260506001520 74 124 3.0 6.0 0.00 0.00 0.00 19 1006.6
20260506000019 73 99 0.0 12.0 0.00 0.00 0.00 20 1006.5
20260505234518 74 122 0.0 3.0 0.00 0.00 0.00 20 1006.5
20260505233025 73 105 0.0 1.0 0.00 0.00 0.00 21 1006.5
20260505231516 73 329 5.0 10.0 0.00 0.00 0.00 20 1006.5
20260505230123 72 143 1.0 10.0 0.00 0.00 0.00 20 1006.8
20260505224514 73 70 0.0 11.0 0.00 0.00 0.00 20 1007.1
20260505223013 73 58 4.0 14.0 0.00 0.00 0.00 20 1007.2
20260505221512 73 75 1.0 11.0 0.00 0.00 0.00 20 1007.3
20260505220028 73 101 7.0 12.0 0.00 0.00 0.00 20 1007.6
20260505214515 72 110 3.0 10.0 0.00 0.00 0.00 22 1007.7
20260505213010 72 22 0.0 12.0 0.00 0.00 0.00 21 1007.8
20260505211511 72 180 1.0 14.0 0.00 0.00 0.00 22 1008.0
20260505210007 72 241 0.0 8.0 0.00 0.00 0.00 22 1008.2
20260505204507 72 210 7.0 10.0 0.00 0.00 0.00 23 1008.3
20260505203002 71 77 7.0 14.0 0.00 0.00 0.00 24 1008.3
20260505201500 70 160 5.0 13.0 0.00 0.00 0.00 25 1008.3
20260505200110 69 75 8.0 12.0 0.00 0.00 0.00 25 1008.4
20260505194600 70 101 6.0 14.0 0.00 0.00 0.00 26 1008.5
20260505193104 68 90 3.0 13.0 0.00 0.00 0.00 27 1008.8
20260505191604 69 86 4.0 13.0 0.00 0.00 0.00 27 1008.8
20260505190055 70 180 1.0 9.0 0.00 0.00 0.00 27 1008.7
20260505184551 68 112 2.0 9.0 0.00 0.00 0.00 27 1008.9
20260505183048 69 141 3.0 9.0 0.00 0.00 0.00 29 1008.9
20260505181554 67 198 1.0 11.0 0.00 0.00 0.00 30 1008.8
20260505180043 68 125 1.0 7.0 0.00 0.00 0.00 30 1008.8
20260505174541 65 121 3.0 11.0 0.00 0.00 0.00 34 1008.9
20260505173040 65 132 1.0 10.0 0.00 0.00 0.00 34 1009.0
20260505171537 65 117 3.0 8.0 0.00 0.00 0.00 34 1009.0
20260505170037 65 127 0.0 7.0 0.00 0.00 0.00 35 1009.0
20260505164534 63 131 2.0 9.0 0.00 0.00 0.00 37 1009.1
20260505163033 62 127 4.0 10.0 0.00 0.00 0.00 39 1009.1
20260505161541 62 123 1.0 8.0 0.00 0.00 0.00 39 1009.1
20260505153031 60 113 0.0 6.0 0.00 0.00 0.00 42 1009.1
20260505151529 60 131 1.0 8.0 0.00 0.00 0.00 42 1009.1